Location: St. Louis
(38.6270°N, 90.1994°W)
Time: 09:14:37
(UTC-06:00)

Vanguard 2 Rocket - Pass Details

Date: 09 December 2021
Orbit: 553 x 3325 km, 32.9° (Epoch: 23 January)

Event Time Altitude Azimuth Distance (km) Brightness Sun altitude
Rises 15:14:23 0° 218° (SW) 2,706 11.3 12.6°
Reaches altitude 10° 15:17:00 10° 198° (SSW) 1,854 9.8 12.2°
Maximum altitude 15:19:52 18° 152° (SSE) 1,506 8.3 11.8°
Drops below altitude 10° 15:23:14 10° 107° (ESE) 2,236 8.7 11.3°
Sets 15:26:49 0° 90° (E) 3,522 9.5 10.8°
